Regional Weather Roundup
Issued by NWS

Home | Current Version | Previous Version | Text Only | Print | Product List | Glossary On
Versions: 1 2 3 4 5 6 7 8 9 10 11 12 13 14 15 16 17 18 19 20 21 22 23 24 25 26 27 28
000
ASUS46 KSEW 190410
RWRWA

WASHINGTON REGIONAL WEATHER ROUNDUP
NATIONAL WEATHER SERVICE SEATTLE WA
900 PM PDT FRI AUG 18 2017

NOTE:"FAIR" INDICATES FEW OR NO CLOUDS BELOW 12,000 FEET WITH NO
SIGNIFICANT WEATHER AND/OR OBSTRUCTIONS TO VISIBILITY.

WAZ507-509-555>559-190500-
SEATTLE, TACOMA, EVERETT, AND VICINITY

CITY           SKY/WX    TMP DP  RH WIND       PRES   REMARKS
EVERETT        CLOUDY    61  56  83 N7        30.16R
BOEING FIELD   CLOUDY    71  59  65 VRB5      30.12R
RENTON         CLOUDY    71  59  65 N8        30.12R
SEATAC AIRPORT MOCLDY    69  56  62 N10       30.14R
JBLM-MCCHORD   CLOUDY    68  62  78 W7        30.14R
PUYALLUP       CLOUDY    70  61  73 CALM      30.14R
BREMERTON      MOCLDY    66  56  70 E5        30.14R
JBLM-FT LEWIS  PTCLDY    68  61  78 SW7       30.13R
TACOMA NARROWS CLOUDY    67  58  72 CALM      30.14R
$$

WAZ001-503-506-510-514-515-190500-
NORTH INTERIOR

CITY           SKY/WX    TMP DP  RH WIND       PRES   REMARKS
BELLINGHAM     FAIR      64  56  75 S8        30.11R
FRIDAY HARBOR  FAIR      63  52  67 SW9       30.12R
EASTSOUND      FAIR      63  55  77 S6        30.11R
PORT ANGELES   FAIR      57  54  89 W20G28    30.17S
EDIZ HOOK      FAIR      57  53  86 W17       30.16S
PORT TOWNSEND  MOCLDY    61  57  88 W13       30.15R
NAS WHIDBEY    MOCLDY    59  52  77 SW15      30.18
ARLINGTON      CLOUDY    64  56  75 N7        30.15R
BURLINGTON     MOCLDY    61  54  77 S8G17     30.14S
$$

WAZ020-022-039-040-504-511-512-190500-
SOUTHWEST INTERIOR

CITY           SKY/WX    TMP DP  RH WIND       PRES   REMARKS
SHELTON        FAIR      66  58  75 SW13      30.11R
OLYMPIA        MOCLDY    65  58  78 SW6       30.14R
CHEHALIS       MOCLDY    64  59  82 CALM      30.16R
KELSO          MOCLDY    66  58  75 W9        30.16R
VANCOUVER      FAIR      70  59  68 NW10      30.12R
SCAPPOOSE, OR  FAIR      68  57  68 N7        30.13R
PORTLAND, OR   FAIR      70  58  65 NW12G18   30.13R
$$

WAZ021-516-517-190500-
WASHINGTON COAST

CITY           SKY/WX    TMP DP  RH WIND       PRES   REMARKS
FORKS          FAIR      57  54  89 NW6       30.21R
HOQUIAM        CLOUDY    61  58  90 W12       30.18R
ASTORIA, OR    CLOUDY    62  59  90 W6        30.18S
$$

WAZ019-023-024-040-567>569-190500-
CASCADE MOUNTAINS AND COLUMBIA GORGE

CITY           SKY/WX    TMP DP  RH WIND       PRES   REMARKS
STAMPEDE PASS  CLOUDY    54  50  86 VRB6      30.19R
TROUTDALE, OR  FAIR      71  58  63 NW8       30.11R
HOOD RIVER, OR FAIR      72  54  53 NW3       30.07R
THE DALLES, OR FAIR      78  53  41 NW16G25   30.02R
$$

WAZ026-027-041>044-520-521-190500-
EAST SLOPES

CITY           SKY/WX    TMP DP  RH WIND       PRES   REMARKS
OMAK           FAIR      76  37  24 NW8       29.93R
WENATCHEE      FAIR      73  45  36 NW15      29.99R
ELLENSBURG     FAIR      67  51  56 W20G31    30.05R
YAKIMA         FAIR      77  52  41 NW12      30.00R
SUNNYSIDE ARPT   N/A     67  53  61 W6        29.95R
YAKIMA TC      FAIR      72  48  43 N10       30.00R
$$

WAZ028-034-035-190500-
COLUMBIA BASIN

CITY           SKY/WX    TMP DP  RH WIND       PRES   REMARKS
EPHRATA        FAIR      76  40  27 NW24G36   29.93R
MOSES LAKE     FAIR      74  46  36 NW6       29.95R
PASCO          FAIR      79  50  36 NW15      29.92R
RICHLAND ARPT  FAIR      81  49  33 MISG      29.93R
HERMISTON, OR  FAIR      81  50  33 W9        29.95R
$$

WAZ036>038-190500-
NORTHEAST WASHINGTON

CITY           SKY/WX    TMP DP  RH WIND       PRES   REMARKS
SPOKANE GEIGER FAIR      75  41  29 SW12      29.95R
SPOKANE FELTS  FAIR      76  39  26 W6        29.94R
FAIRCHILD AFB  FAIR      74  42  31 W14       29.96R
COEURDALENE,ID FAIR      73  41  31 S7        29.95R
DEER PARK      FAIR      72  35  25 SW7       29.93R
$$

WAZ029>033-190500-
SOUTHEAST WASHINGTON

CITY           SKY/WX    TMP DP  RH WIND       PRES   REMARKS
PULLMAN        FAIR      75  36  24 W7        30.02R
LEWISTON, ID   FAIR      84  37  18 NW12G22   29.93R
WALLA WALLA    FAIR      80  44  27 S14       29.95R
PENDLETON, OR  FAIR      78  47  33 W22G30    29.97R
$$




USA.gov is the U.S. government's official web portal to all federal, state and local government web resources and services.